Powrót do katalogu

STARLINK-31860

AktywnyŁącznośćVLEO
NORAD 59670·PAYLOAD·🇺🇸 United States

Wystrzelony May 6, 2024 z Cape Canaveral Space Force Station

Loading…

Następne Przeloty (najbliższe 24 godziny)

TLE

ŚwieżeSource: CelesTrak SupGP

Epoka: Sep 15, 2026, 02:21 UTC

1 59670C 24084S   26258.09840278 -.00029628  00000+0 -10726-2 0  2580
2 59670  43.0012  48.6431 0001430 277.3295 342.3373 15.27610382    19

Śledź STARLINK-31860 w czasie rzeczywistym z AllMySat

Download on the App Store